Location: Ferchesar
(52.6477°N, 12.4298°E)
Time: 17:05:58
(UTC+01:00)

Vanguard 3 - Pass Details

Date: 10 December 2021
Orbit: 508 x 3260 km, 33.3° (Epoch: 22 January)

Event Time Altitude Azimuth Distance (km) Brightness Sun altitude
Rises 02:11:45 0° 224° (SW) 6,407 - -51.5°
Reaches altitude 10° 02:16:15 10° 216° (SW) 5,685 - -50.9°
Maximum altitude 02:31:41 35° 160° (SSE) 4,440 - -49.0°
Exits shadow 02:31:41 35° 160° (SSE) 4,440 10.6 -49.0°
Drops below altitude 10° 02:47:35 10° 104° (ESE) 5,872 11.8 -46.9°
Sets 02:52:17 0° 97° (E) 6,637 12.4 -46.3°
